Regional Weather Roundup
Issued by NWS Little Rock, AR

Home | Current Version | Previous Version | Text Only | Print | Product List | Glossary Off
Versions: 1 2 3 4 5 6 7 8 9 10 11 12 13 14 15 16 17 18 19 20 21 22 23 24 25 26 27 28 29 30 31 32 33 34 35 36 37 38 39 40 41 42 43 44 45 46 47 48 49 50

627
ASUS44 KLZK 231805
RWRLZK

WEATHER ROUNDUP FOR ARKANSAS
NATIONAL WEATHER SERVICE LITTLE ROCK AR
100 PM CDT SAT JUL 23 2016

NOTE: "FAIR" INDICATES FEW OR NO CLOUDS BELOW 12,000 FEET WITH NO
SIGNIFICANT WEATHER AND/OR OBSTRUCTIONS TO VISIBILITY.

ARZ001-003-010-029-231900-
NORTHWEST ARKANSAS

CITY           SKY/WX    TMP DP  RH WIND       PRES   REMARKS
FAYETTEVILLE   MOSUNNY   92  74  55 SW7       30.00F HX 101
6HR MIN TEMP:  72; 6HR MAX TEMP:  93;

FORT SMITH     SUNNY     96  70  42 NW5       29.95F HX 102
6HR MIN TEMP:  79; 6HR MAX TEMP:  97;

HARRISON       MOSUNNY   94  74  52 CALM      30.01F HX 104
6HR MIN TEMP:  76; 6HR MAX TEMP:  95;

BENTONVILLE    MOSUNNY   93  72  49 CALM      30.02F HX 100
6HR MIN TEMP:  75; 6HR MAX TEMP:  93;

ROGERS         MOSUNNY   95  72  47 SW7       30.02F HX 103
6HR MIN TEMP:  77; 6HR MAX TEMP:  95;

SILOAM SPGS    SUNNY     93  70  46 W8        30.02F HX  99
6HR MIN TEMP:  73; 6HR MAX TEMP:  93;

HIGHFILL       MOSUNNY   93  74  53 SW6       30.01F HX 103
6HR MIN TEMP:  75; 6HR MAX TEMP:  93;

SPRINGDALE     SUNNY     93  72  49 W5        30.03F HX 100
$$

ARZ004-005-016-231900-
NORTH CENTRAL ARKANSAS

CITY           SKY/WX    TMP DP  RH WIND       PRES   REMARKS
BATESVILLE     SUNNY     95  77  55 N6        29.95F HX 109
6HR MIN TEMP:  73; 6HR MAX TEMP:  97;

FLIPPIN        SUNNY     93  73  52 SE3       29.96F HX 102
6HR MIN TEMP:  75; 6HR MAX TEMP:  95;

MTN HOME       SUNNY     93  75  55 CALM      29.98F HX 104
6HR MIN TEMP:  77; 6HR MAX TEMP:  93;

$$

ARZ040-041-231900-
WEST CENTRAL ARKANSAS

CITY           SKY/WX    TMP DP  RH WIND       PRES   REMARKS
MENA           MOSUNNY   97  70  41 SW3       30.00S HX 103
MOUNT IDA      SUNNY     99  70  38 VRB6      29.95F HX 106
6HR MIN TEMP:  76; 6HR MAX TEMP: 100;

$$

ARZ009-017-025-026-028-231900-
NORTHEAST ARKANSAS

CITY           SKY/WX    TMP DP  RH WIND       PRES   REMARKS
CORNING          N/A     93  79  62 NE3       29.96F HX 110
JONESBORO      CLOUDY    90  79  70 E7        29.95F HX 106
6HR MIN TEMP:  77; 6HR MAX TEMP:  91;

NEWPORT        SUNNY     96  79  58 NE6       29.96F HX 114
6HR MIN TEMP:  77; 6HR MAX TEMP:  96;

WALNUT RIDGE   SUNNY     91  73  55 E6        29.95S HX 100
6HR MIN TEMP:  77; 6HR MAX TEMP:  93;

BLYTHEVILLE    MOSUNNY   88  78  72 VRB5      29.97F HX 101
6HR MIN TEMP:  76; 6HR MAX TEMP:  89;

$$

ARZ022-023-033-042-044-231900-
CENTRAL ARKANSAS

CITY           SKY/WX    TMP DP  RH WIND       PRES   REMARKS
LITTLE ROCK    MOSUNNY   98  77  50 SE6       29.95F HX 113
6HR MIN TEMP:  81; 6HR MAX TEMP:  98;

JACKSONVILLE   SUNNY     98  78  51 S6        29.94F HX 114
6HR MIN TEMP:  78; 6HR MAX TEMP:  98;

SEARCY         SUNNY     99  78  51 S8        29.95F HX 116
6HR MIN TEMP:  77; 6HR MAX TEMP:  99;

HOT SPRINGS    MOSUNNY   99  72  41 CALM      29.96F HX 108
6HR MIN TEMP:  79; 6HR MAX TEMP:  99;

RUSSELLVILLE   SUNNY     95  76  53 CALM      29.94F HX 108
6HR MIN TEMP:  79; 6HR MAX TEMP:  95;

$$

ARZ036-231900-
EAST ARKANSAS

CITY           SKY/WX    TMP DP  RH WIND       PRES   REMARKS
WEST MEMPHIS   CLOUDY    86  74  67 SE13      29.97S HX  94
6HR MIN TEMP:  77; 6HR MAX TEMP:  87;

$$

ARZ050-053-066-070-073-231900-
SOUTHWEST ARKANSAS

CITY           SKY/WX    TMP DP  RH WIND       PRES   REMARKS
CAMDEN         MOSUNNY   99  75  47 S6        29.95F HX 111
TEXARKANA      PTSUNNY   98  71  41 VRB3      29.96F HX 106
6HR MIN TEMP:  78; 6HR MAX TEMP:  99;

EL DORADO      MOSUNNY   93  73  52 CALM      29.98F HX 102
6HR MIN TEMP:  76; 6HR MAX TEMP:  96;

DE QUEEN       SUNNY     99  73  43 SW8       29.93F HX 109
6HR MIN TEMP:  76; 6HR MAX TEMP:  99;

$$

ARZ056-057-069-231900-
SOUTHEAST ARKANSAS

CITY           SKY/WX    TMP DP  RH WIND       PRES   REMARKS
PINE BLUFF     SUNNY     94  77  57 VRB5      29.96F HX 108
6HR MIN TEMP:  77; 6HR MAX TEMP:  95;

STUTTGART      SUNNY     97  77  52 W7        29.96F HX 112
6HR MIN TEMP:  81; 6HR MAX TEMP:  97;

MONTICELLO     MOSUNNY   96  75  50 VRB5      29.97F HX 108
6HR MIN TEMP:  77; 6HR MAX TEMP:  96;


$$






USA.gov is the U.S. government's official web portal to all federal, state and local government web resources and services.